[[{"header":{"parameterUnit":"m.s-1","parameterCategory":1,"la1":30.2991,"la2":30.254,"lo1":-89.0895,"lo2":-89.0444,"dy":0.0017,"dx":0.0017,"nx":28,"ny":28,"refTime":"2023-08-18T03:00:00:Z","depth":0,"parameterNumber":2,"parameterNumberName":"U-component_of_WINDS"},"data":[0,0,0,0,0,0,0,0,0,0,0,0,0,0,0,0,0,0,0,0,0,0,0,0,0,0,0,0,0,0,0,0,0,0,0,0,0,0,0,0,0,0,0,0,0,0,0,0,0,0,0,0,0,0,0,0,0,0,2.1887,2.1887,0,2.1933,2.1933,2.1934,2.1916,2.1915,2.1914,2.1913,2.1964,2.1966,2.1968,0,0,0,0,0,0,0,0,0,0,0,0,0,2.1788,2.179,2.1887,2.1887,2.1888,2.1933,2.1933,2.1934,2.1916,2.1915,2.1914,2.1912,2.1963,2.1966,2.1968,0,0,0,0,0,0,0,0,0,0,0,0,0,2.1832,2.1791,2.1887,2.1884,2.1884,2.1933,2.1933,2.1934,2.1917,2.1915,2.1913,2.1912,2.1962,2.1965,2.1969,2.2023,0,0,2.198,2.1981,0,0,0,0,0,0,0,0,2.183,2.1836,2.1884,2.1884,2.1885,2.1917,2.1917,2.1964,2.1917,2.1905,2.1913,2.1911,2.195,2.1954,2.1966,2.2025,2.2027,2.198,2.1982,2.1984,2.1985,0,0,0,0,0,0,0,2.1827,2.1834,2.1905,2.1885,2.1885,2.1883,2.1887,2.1926,2.1936,2.1905,2.1904,2.191,2.195,2.1963,2.1967,2.2028,2.198,2.1983,2.1985,2.1986,2.2137,2.2139,0,0,0,0,0,0,2.1823,2.1831,2.1904,2.1906,2.1853,2.1886,2.1891,2.1908,2.1935,2.1938,2.1911,2.1909,2.1958,2.1963,2.1969,2.2036,2.1983,2.1987,2.1989,2.2136,2.2138,2.214,0,0,0,0,0,0,2.1821,2.183,2.1902,2.1869,2.1878,2.1889,2.1909,2.191,2.1923,2.1939,2.1941,2.1923,2.1957,2.1964,2.201,2.2038,2.1988,2.1992,2.2133,2.2136,2.2139,2.217,0,0,0,0,0,0,2.1818,2.1829,2.1848,2.1869,2.1879,2.194,2.1911,2.1912,2.1929,2.1927,2.1951,2.1953,2.1956,2.2005,2.2014,2.2042,2.1994,2.2131,2.2135,2.2138,2.2166,2.2173,2.2179,0,0,0,0,0,2.1815,2.1855,2.1849,2.1858,2.1903,2.1942,2.1948,2.1949,2.1931,2.1952,2.1963,2.1953,2.2033,2.201,2.2019,2.2049,2.2129,2.2134,2.2138,2.2163,2.2172,2.2179,0,0,0,0,0,0,2.1837,2.1858,2.1851,2.1899,2.1919,2.1939,2.1964,2.1958,2.1984,2.198,2.1982,2.1987,2.2035,2.2047,2.202,2.2105,2.2079,2.2085,2.2095,2.2103,2.211,2.2106,2.1997,0,0,0,0,0,2.1848,2.1876,2.1893,2.1934,2.1944,2.1953,2.1969,2.1969,2.199,2.1998,2.2012,2.2034,2.2065,2.2084,2.2113,2.2168,2.2175,2.2193,2.22,2.2205,2.2211,2.2244,2.2253,2.2154,2.2154,2.2154,0,0,2.187,2.1885,2.1902,2.1939,2.1954,2.1985,2.196,2.1993,2.2017,2.2003,2.2048,2.2059,2.2084,2.2135,2.2159,2.2146,2.224,2.221,2.2214,2.2217,2.2249,2.2258,2.2267,2.2157,2.2156,2.2156,0,0,2.1926,2.1939,2.1976,2.1992,2.2015,2.2021,2.203,2.2052,2.2059,2.2103,2.2095,2.2124,2.2176,2.2195,2.2211,2.2278,2.227,2.2287,2.2321,2.2353,2.2361,2.2368,2.2394,2.2403,2.2293,2.2293,2.2293,0,2.1951,2.1996,2.1996,2.203,2.2048,2.2037,2.2076,2.2092,2.2124,2.2137,2.2123,2.2189,2.2205,2.2262,2.2279,2.2291,2.2304,2.2284,2.2359,2.2366,2.2373,2.2398,2.2407,2.2295,2.2294,2.2294,2.2294,0,2.2026,2.2058,2.2085,2.2116,2.2137,2.2173,2.2181,2.2202,2.22,2.2209,2.2256,2.2275,2.2308,2.2322,2.232,2.238,2.2372,2.2358,2.2333,2.2384,2.2408,2.2417,2.2298,2.2297,2.2296,2.2296,0,0,2.2097,2.2129,2.2139,2.2154,2.2181,2.2206,2.2243,2.2276,2.2295,2.2318,2.2351,2.2396,2.2385,2.2404,2.2405,2.2433,2.2487,2.2416,2.2417,2.243,2.2557,2.2567,2.2578,2.2482,2.2484,2.2486,2.2555,0,2.2156,2.222,2.2223,2.2282,2.2313,2.2305,2.2338,2.2359,2.2369,2.2398,2.2409,2.2442,2.2423,2.2435,2.2462,2.2475,2.2513,2.247,2.2515,2.2517,2.251,2.259,2.2601,2.2665,2.2564,2.2566,2.2567,0,2.2234,2.226,2.2322,2.2347,2.236,2.2389,2.2421,2.2448,2.2472,2.2478,2.25,2.2498,2.2538,2.2511,2.2569,2.254,2.2559,2.2568,2.2571,2.2576,2.2545,2.2599,2.2685,2.2696,2.2581,2.258,2.2579,0,2.2281,2.2332,2.2376,2.2389,2.2418,2.244,2.2453,2.2476,2.2497,2.2525,2.2538,2.2571,2.2589,2.2616,2.2624,2.2603,2.2682,2.2655,2.2689,2.2689,2.2707,2.2706,2.2799,2.2717,2.2717,2.2717,2.2717,0,2.2348,2.2387,2.2398,2.2426,2.2471,2.2474,2.2519,2.2531,2.2552,2.2583,2.2579,2.2609,2.2616,2.2649,2.2655,2.2703,2.2711,2.2718,2.272,2.2719,2.2719,2.2732,2.2729,2.2719,2.2719,2.2718,2.2718,0,2.2409,2.2417,2.2466,2.249,2.2497,2.2529,2.2551,2.2578,2.2588,2.2628,2.2638,2.2653,2.2691,2.2702,2.2747,2.2751,2.2809,2.2805,2.28,2.2801,2.2835,2.2832,2.2942,2.2957,2.2864,2.2865,2.2865,0,2.2451,2.2481,2.2509,2.2529,2.2544,2.2576,2.2597,2.2603,2.2625,2.2658,2.2682,2.2719,2.2749,2.2811,2.2827,2.2863,2.2861,2.2897,2.2867,2.2866,2.2864,2.2863,2.2867,2.2903,2.2904,2.2905,2.2906,0,2.2526,2.253,2.2559,2.2592,2.2617,2.2643,2.2668,2.2685,2.2695,2.2721,2.2759,2.2783,2.283,2.2868,2.2904,2.292,2.2916,2.2915,2.2926,2.2926,2.2922,2.2927,2.2818,2.2913,2.2912,2.2912,2.2911,2.2911,2.258,2.2607,2.2632,2.2666,2.2686,2.271,2.2737,2.2751,2.2783,2.2821,2.2823,2.2866,2.2893,2.2941,2.2959,2.2994,2.2984,2.2998,2.3002,2.3005,2.3009,2.2916,2.3001,2.3,2.3,2.3,2.3,0,2.2657,2.2672,2.2704,2.2739,2.2767,2.2759,2.2788,2.2812,2.2849,2.2874,2.2904,2.295,2.2988,2.3008,2.3046,2.307,2.3069,2.308,2.3079,2.3083,2.3015,2.3004,2.308,2.308,2.308,2.308,2.308,2.308,2.27,2.2746,2.2753,2.281,2.2826,2.2867,2.2884,2.2908,2.2928,2.2979,2.301,2.3023,2.3047,2.3087,2.3122,2.3127,2.3142,2.3155,2.3159,2.3096,2.3087,2.308,2.3069,2.3158,2.3158,2.3224,2.3225,2.3225]},{"header":{"parameterUnit":"m.s-1","parameterCategory":1,"la1":30.2991,"la2":30.254,"lo1":-89.0895,"lo2":-89.0444,"dy":0.0017,"dx":0.0017,"nx":28,"ny":28,"refTime":"2023-08-18T03:00:00:Z","depth":0,"parameterNumber":3,"parameterNumberName":"V-component_of_WINDS"},"data":[0,0,0,0,0,0,0,0,0,0,0,0,0,0,0,0,0,0,0,0,0,0,0,0,0,0,0,0,0,0,0,0,0,0,0,0,0,0,0,0,0,0,0,0,0,0,0,0,0,0,0,0,0,0,0,0,0,0,-0.3558,-0.3558,0,-0.3536,-0.3536,-0.3536,-0.3599,-0.3601,-0.3603,-0.3605,-0.3581,-0.3578,-0.3576,0,0,0,0,0,0,0,0,0,0,0,0,0,-0.3654,-0.3652,-0.3558,-0.3558,-0.3557,-0.3536,-0.3536,-0.3536,-0.3599,-0.3601,-0.3603,-0.3606,-0.3581,-0.3578,-0.3576,0,0,0,0,0,0,0,0,0,0,0,0,0,-0.362,-0.3651,-0.3558,-0.3586,-0.3588,-0.3536,-0.3536,-0.3536,-0.3598,-0.3601,-0.3604,-0.3607,-0.3582,-0.3579,-0.3575,-0.3494,0,0,-0.3564,-0.3562,0,0,0,0,0,0,0,0,-0.3622,-0.3617,-0.3582,-0.3584,-0.3587,-0.3573,-0.3561,-0.3522,-0.3597,-0.3594,-0.3605,-0.3608,-0.3576,-0.3573,-0.3562,-0.3493,-0.3492,-0.3564,-0.3561,-0.356,-0.3559,0,0,0,0,0,0,0,-0.3624,-0.3618,-0.3549,-0.3582,-0.3584,-0.36,-0.3599,-0.3554,-0.3569,-0.3595,-0.3599,-0.3596,-0.3577,-0.3566,-0.3562,-0.3492,-0.3564,-0.356,-0.3558,-0.3557,-0.336,-0.3357,0,0,0,0,0,0,-0.3623,-0.3619,-0.355,-0.3549,-0.3612,-0.3596,-0.3594,-0.3575,-0.357,-0.3572,-0.3594,-0.3599,-0.357,-0.3566,-0.3561,-0.347,-0.356,-0.3556,-0.3554,-0.3363,-0.3359,-0.3356,0,0,0,0,0,0,-0.3625,-0.3616,-0.3551,-0.3585,-0.3578,-0.3591,-0.3569,-0.3573,-0.3561,-0.3569,-0.3572,-0.3579,-0.3573,-0.3567,-0.3512,-0.347,-0.3555,-0.3551,-0.3367,-0.3362,-0.3358,-0.3284,0,0,0,0,0,0,-0.3627,-0.3616,-0.3585,-0.3584,-0.3576,-0.3501,-0.3566,-0.357,-0.3555,-0.3562,-0.3556,-0.3557,-0.3574,-0.3517,-0.3508,-0.3466,-0.3548,-0.3371,-0.3365,-0.3359,-0.329,-0.3277,-0.3267,0,0,0,0,0,-0.363,-0.3564,-0.3583,-0.3575,-0.3537,-0.3498,-0.3494,-0.3515,-0.3551,-0.3521,-0.3526,-0.3557,-0.3476,-0.3511,-0.3501,-0.3458,-0.3373,-0.3366,-0.336,-0.3295,-0.328,-0.3267,0,0,0,0,0,0,-0.3557,-0.3564,-0.3586,-0.3516,-0.3507,-0.3509,-0.3471,-0.3497,-0.3476,-0.3483,-0.3511,-0.3509,-0.345,-0.3448,-0.3487,-0.3382,-0.3431,-0.3422,-0.3385,-0.337,-0.3359,-0.3361,-0.3545,0,0,0,0,0,-0.3533,-0.3501,-0.3508,-0.3447,-0.3441,-0.3457,-0.344,-0.3458,-0.3449,-0.3444,-0.3446,-0.3435,-0.3408,-0.3389,-0.3363,-0.329,-0.3292,-0.3256,-0.3244,-0.3234,-0.3227,-0.3192,-0.3178,-0.3334,-0.3334,-0.3334,0,0,-0.3483,-0.3483,-0.346,-0.3432,-0.3427,-0.3394,-0.3452,-0.3414,-0.339,-0.3438,-0.3388,-0.3389,-0.3379,-0.3316,-0.3288,-0.3312,-0.3184,-0.3226,-0.3218,-0.3216,-0.3184,-0.3169,-0.3156,-0.3329,-0.333,-0.3331,0,0,-0.3375,-0.337,-0.3321,-0.3315,-0.3307,-0.3319,-0.3307,-0.3306,-0.3309,-0.3259,-0.3296,-0.3268,-0.3219,-0.3212,-0.3202,-0.3096,-0.3126,-0.3087,-0.3026,-0.2992,-0.2979,-0.2969,-0.2934,-0.2921,-0.3079,-0.3079,-0.3079,0,-0.3313,-0.3265,-0.3291,-0.3252,-0.324,-0.3284,-0.3236,-0.3228,-0.3211,-0.3203,-0.3231,-0.3173,-0.3169,-0.3107,-0.3082,-0.3071,-0.306,-0.3088,-0.2979,-0.2969,-0.2959,-0.2927,-0.2913,-0.3074,-0.3075,-0.3075,-0.3076,0,-0.3192,-0.3158,-0.3119,-0.3105,-0.3089,-0.3044,-0.3065,-0.3045,-0.3065,-0.3074,-0.3025,-0.3022,-0.2999,-0.2986,-0.3003,-0.2927,-0.2944,-0.2974,-0.3025,-0.2939,-0.291,-0.2897,-0.3068,-0.307,-0.3071,-0.3072,0,0,-0.3035,-0.304,-0.3025,-0.3021,-0.3018,-0.2992,-0.2951,-0.2931,-0.2915,-0.2902,-0.2871,-0.283,-0.2861,-0.2849,-0.2867,-0.2837,-0.2759,-0.2873,-0.2873,-0.2854,-0.2679,-0.2657,-0.2642,-0.2778,-0.2775,-0.2774,-0.2681,0,-0.2932,-0.2864,-0.2888,-0.2818,-0.279,-0.2833,-0.2798,-0.2793,-0.2801,-0.2778,-0.2787,-0.2759,-0.2799,-0.2794,-0.2766,-0.2774,-0.2724,-0.2781,-0.275,-0.2749,-0.2754,-0.2626,-0.2602,-0.2514,-0.2669,-0.2667,-0.2665,0,-0.2802,-0.2788,-0.2716,-0.2722,-0.2711,-0.2679,-0.2665,-0.2642,-0.2637,-0.2646,-0.2635,-0.2661,-0.2623,-0.2672,-0.2622,-0.266,-0.2649,-0.2651,-0.2649,-0.2648,-0.2703,-0.2625,-0.2486,-0.2474,-0.2646,-0.2648,-0.2649,0,-0.27,-0.2662,-0.2616,-0.2611,-0.2615,-0.2593,-0.2593,-0.2592,-0.258,-0.2567,-0.256,-0.2541,-0.2532,-0.2518,-0.2539,-0.2572,-0.2487,-0.2537,-0.2494,-0.2494,-0.2475,-0.2477,-0.2336,-0.2464,-0.2464,-0.2464,-0.2465,0,-0.2583,-0.2538,-0.2571,-0.2542,-0.2495,-0.2523,-0.2475,-0.2481,-0.248,-0.2454,-0.249,-0.2465,-0.2493,-0.2471,-0.2487,-0.2446,-0.244,-0.2447,-0.2452,-0.2445,-0.2445,-0.244,-0.2447,-0.2461,-0.2462,-0.2462,-0.2463,0,-0.2461,-0.248,-0.2434,-0.2443,-0.2445,-0.2409,-0.2418,-0.2393,-0.2405,-0.2372,-0.2366,-0.2384,-0.2361,-0.2381,-0.2357,-0.2368,-0.2314,-0.2326,-0.2316,-0.232,-0.2278,-0.2283,-0.2131,-0.2114,-0.225,-0.2249,-0.2248,0,-0.2386,-0.2353,-0.2361,-0.2347,-0.2347,-0.2323,-0.2312,-0.234,-0.2327,-0.2322,-0.2298,-0.2278,-0.2264,-0.2225,-0.2237,-0.222,-0.2234,-0.2182,-0.2232,-0.2227,-0.2237,-0.224,-0.2239,-0.2173,-0.2171,-0.217,-0.2168,0,-0.2253,-0.2266,-0.2248,-0.2236,-0.2222,-0.2213,-0.2206,-0.2193,-0.2222,-0.2206,-0.2184,-0.2173,-0.2151,-0.2132,-0.212,-0.2121,-0.215,-0.2153,-0.2143,-0.2136,-0.2133,-0.2138,-0.2291,-0.2156,-0.2158,-0.2159,-0.2159,-0.216,-0.2154,-0.2129,-0.2132,-0.2113,-0.2112,-0.2106,-0.2085,-0.2095,-0.2078,-0.2064,-0.2081,-0.2055,-0.2055,-0.2042,-0.2041,-0.2021,-0.2043,-0.2027,-0.2024,-0.202,-0.2016,-0.2135,-0.2019,-0.2019,-0.2019,-0.202,-0.202,0,-0.2026,-0.2031,-0.2013,-0.2006,-0.1991,-0.2021,-0.2017,-0.2003,-0.198,-0.1978,-0.1965,-0.1942,-0.1924,-0.1936,-0.1921,-0.1904,-0.1917,-0.19,-0.1902,-0.1903,-0.1995,-0.2007,-0.1889,-0.189,-0.189,-0.189,-0.189,-0.189,-0.1958,-0.1919,-0.1932,-0.1893,-0.1898,-0.1875,-0.187,-0.1866,-0.1866,-0.1838,-0.1825,-0.1833,-0.1838,-0.1825,-0.1811,-0.1815,-0.181,-0.1788,-0.1797,-0.1883,-0.1896,-0.1908,-0.192,-0.1785,-0.1785,-0.1706,-0.1706,-0.1705]}]]